Tracking 17631 objects as of 4-May-2016
HD Live streaming from Space Station
objects crossing your sky now

COSMOS 2251 DEB

Track COSMOS 2251 DEB now!
10-day predictions


NORAD ID: 33899
Int'l Code: 1993-036DC
Perigee: 693.3 km
Apogee: 802.6 km
Inclination: 74.1 °
Period: 99.6 minutes
Semi major axis: 7118 km
RCS: 0.032 m2 (small)
Launch date: June 16, 1993
Source: Commonwealth of Independent States (former USSR) (CIS)
Launch site: PLESETSK MISSILE AND SPACE COMPLEX (PKMTR)

Note: This is SATELLITE DEBRIS
Your satellite tracking list
Your tracking list is empty





NASA's NSSDC Master Catalog

Two Line Element Set (TLE):
1 33899U 93036DC  16123.62480001 +.00000483 +00000-0 +14001-3 0  9991
2 33899 074.0587 179.0989 0076758 054.8620 070.6695 14.45365082379882
Source of the keplerian elements: AFSPC

N2YO: 402